[[{"header":{"parameterUnit":"m.s-1","parameterCategory":1,"la1":30.2992,"la2":30.254,"lo1":-89.0895,"lo2":-89.0443,"dy":0.0025,"dx":0.0025,"nx":19,"ny":19,"refTime":"2026-05-15T03:00:00:Z","depth":0,"parameterNumber":2,"parameterNumberName":"U-component_of_WINDS"},"data":[0,0,0,-1.7266,-1.7266,-1.7289,-1.7289,-1.733,-1.7331,0,0,0,0,0,0,0,0,0,0,0,-1.7265,-1.7266,-1.7265,-1.7266,-1.7289,-1.7289,-1.733,-1.7331,0,0,0,0,0,0,0,0,0,0,0,-1.7265,-1.7265,-1.7266,-1.7266,-1.7289,-1.7289,-1.733,-1.7309,0,0,0,0,0,0,0,0,0,0,-1.7285,-1.729,-1.7265,-1.7266,-1.7266,-1.7289,-1.7289,-1.7308,-1.731,-1.7325,0,-1.7339,0,-1.7335,-1.7334,-1.7334,0,0,0,-1.7262,-1.7288,-1.7288,-1.7266,-1.7267,-1.7289,-1.7277,-1.7309,-1.7312,-1.7328,-1.7339,-1.734,-1.7336,-1.7335,-1.7335,-1.7432,-1.7433,0,0,-1.726,-1.7273,-1.7287,-1.7291,-1.7287,-1.7277,-1.7278,-1.731,-1.7324,-1.7339,-1.7341,-1.7337,-1.7335,-1.7335,-1.7432,-1.7433,0,0,0,-1.726,-1.7272,-1.7271,-1.7289,-1.7292,-1.7278,-1.7279,-1.7322,-1.7321,-1.7342,-1.7337,-1.7335,-1.7336,-1.7431,-1.7432,-1.7476,0,0,0,-1.7259,-1.7272,-1.7271,-1.7279,-1.7292,-1.7307,-1.729,-1.7319,-1.7322,-1.7337,-1.7335,-1.7336,-1.743,-1.7432,-1.7474,-1.7495,0,0,0,-1.7261,-1.7272,-1.7277,-1.728,-1.729,-1.7307,-1.7307,-1.7319,-1.732,-1.7334,-1.7336,-1.743,-1.7431,-1.7471,-1.7491,-1.7524,0,0,0,-1.7268,-1.7317,-1.7278,-1.7332,-1.729,-1.7334,-1.7307,-1.7339,-1.7357,-1.7335,-1.743,-1.7432,-1.747,-1.7489,-1.7522,-1.7554,-1.7569,0,0,-1.7337,-1.7326,-1.7356,-1.7322,-1.7376,-1.7329,-1.739,-1.7396,-1.7386,-1.7418,-1.742,-1.7474,-1.7491,-1.7524,-1.7648,-1.7659,0,0,0,-1.7382,-1.7404,-1.7416,-1.7433,-1.7438,-1.7444,-1.7439,-1.7441,-1.7467,-1.7405,-1.7495,-1.7505,-1.7523,-1.7538,-1.7548,-1.7563,-1.7439,-1.7439,-1.7439,-1.7498,-1.7482,-1.7532,-1.7519,-1.7537,-1.753,-1.7543,-1.7545,-1.7525,-1.7547,-1.7556,-1.7633,-1.7651,-1.7658,-1.7674,-1.7572,-1.7572,-1.7573,-1.7573,-1.7597,-1.7625,-1.7597,-1.7635,-1.7619,-1.7651,-1.7647,-1.7632,-1.7659,-1.7625,-1.7641,-1.7604,-1.7672,-1.7685,-1.7576,-1.7575,-1.7575,-1.7575,-1.7574,-1.767,-1.7681,-1.7683,-1.7706,-1.7726,-1.7712,-1.774,-1.7725,-1.771,-1.7726,-1.7734,-1.7733,-1.773,-1.7731,-1.7731,-1.7732,-1.7732,-1.7732,-1.7732,-1.7746,-1.7746,-1.777,-1.778,-1.7789,-1.7799,-1.7794,-1.7802,-1.7808,-1.7795,-1.7795,-1.7773,-1.7681,-1.7658,-1.7736,-1.7735,-1.7735,-1.7735,-1.7734,-1.7852,-1.7825,-1.7863,-1.7872,-1.7882,-1.7903,-1.7883,-1.7902,-1.7907,-1.7922,-1.7896,-1.7831,-1.7819,-1.7811,-1.7791,-1.7899,-1.7899,-1.7899,-1.79,-1.7913,-1.7905,-1.794,-1.7956,-1.797,-1.7955,-1.8,-1.7996,-1.7989,-1.7991,-1.7973,-1.7947,-1.7939,-1.7931,-1.7921,-1.7903,-1.8036,-1.8037,-1.8037,-1.7977,-1.797,-1.801,-1.8001,-1.8008,-1.8014,-1.8055,-1.8074,-1.806,-1.8042,-1.7993,-1.7987,-1.7944,-1.793,-1.791,-1.7894,-1.786,0,0]},{"header":{"parameterUnit":"m.s-1","parameterCategory":1,"la1":30.2992,"la2":30.254,"lo1":-89.0895,"lo2":-89.0443,"dy":0.0025,"dx":0.0025,"nx":19,"ny":19,"refTime":"2026-05-15T03:00:00:Z","depth":0,"parameterNumber":3,"parameterNumberName":"V-component_of_WINDS"},"data":[0,0,0,3.866,3.8663,3.8761,3.8761,3.8889,3.889,0,0,0,0,0,0,0,0,0,0,0,3.8635,3.8636,3.866,3.8663,3.8761,3.8761,3.8889,3.889,0,0,0,0,0,0,0,0,0,0,0,3.8634,3.8636,3.8637,3.8663,3.8761,3.8761,3.8888,3.8813,0,0,0,0,0,0,0,0,0,0,3.8717,3.8698,3.8635,3.8637,3.8664,3.8761,3.8761,3.8809,3.8818,3.8846,0,3.8874,0,3.8884,3.8899,3.8899,0,0,0,3.8659,3.8691,3.8714,3.8637,3.8665,3.8761,3.8716,3.8814,3.8823,3.8857,3.8876,3.888,3.8886,3.89,3.89,3.9077,3.9078,0,0,3.8654,3.8654,3.8708,3.872,3.8708,3.8713,3.8719,3.882,3.8839,3.8876,3.8883,3.8888,3.8901,3.8902,3.9076,3.9077,0,0,0,3.8641,3.8651,3.8671,3.8715,3.8733,3.8716,3.8723,3.8835,3.8842,3.8885,3.889,3.8901,3.8903,3.9075,3.9077,3.9124,0,0,0,3.8637,3.8643,3.8669,3.867,3.8731,3.8786,3.8736,3.8835,3.8846,3.8889,3.8901,3.8904,3.9074,3.9076,3.9121,3.9146,0,0,0,3.8627,3.8641,3.8657,3.867,3.8712,3.8784,3.8797,3.8837,3.885,3.8899,3.8905,3.9074,3.9076,3.9117,3.9141,3.9191,0,0,0,3.8616,3.8699,3.8658,3.8752,3.8712,3.8814,3.8796,3.8872,3.8921,3.8902,3.9074,3.9077,3.9116,3.9138,3.9187,3.9231,3.925,0,0,3.872,3.8711,3.8767,3.8733,3.8843,3.8799,3.8915,3.8959,3.8963,3.9038,3.9042,3.9122,3.914,3.919,3.9361,3.9376,0,0,0,3.8799,3.8839,3.8868,3.8915,3.8951,3.8983,3.901,3.9025,3.9089,3.9003,3.9154,3.9166,3.9194,3.9215,3.9228,3.9251,3.9087,3.9087,3.9087,3.8946,3.8947,3.9037,3.905,3.9095,3.9121,3.9157,3.9182,3.9171,3.9206,3.9228,3.9332,3.9356,3.9366,3.939,3.9253,3.9253,3.9254,3.9254,3.9097,3.9151,3.9133,3.9214,3.9214,3.9281,3.9308,3.9297,3.9357,3.9316,3.9342,3.9294,3.9383,3.9404,3.9257,3.9257,3.9256,3.9256,3.9256,3.9191,3.9217,3.9236,3.9302,3.9352,3.9361,3.942,3.9418,3.9416,3.9442,3.9462,3.9462,3.9458,3.9452,3.9453,3.9453,3.9453,3.9454,3.9454,3.928,3.93,3.935,3.9395,3.9423,3.946,3.9485,3.9512,3.9541,3.9535,3.9535,3.9517,3.9392,3.9359,3.9459,3.9458,3.9458,3.9457,3.9457,3.9429,3.9395,3.9473,3.9501,3.9551,3.9599,3.9596,3.9651,3.9673,3.9701,3.9679,3.9587,3.9577,3.9567,3.954,3.968,3.968,3.968,3.968,3.9507,3.9502,3.958,3.9625,3.9669,3.9673,3.9758,3.9777,3.9792,3.9804,3.9784,3.9748,3.9738,3.9734,3.972,3.9694,3.9871,3.9871,3.9871,3.9597,3.9596,3.9669,3.9684,3.9723,3.9755,3.9833,3.9883,3.9892,3.9879,3.9814,3.9806,3.9748,3.9729,3.9713,3.9692,3.9644,0,0]}]]